This demonstration page uses our WeatherBlox Daily Observations layout. Learn more.

Left ArrowRight Arrow

Hourly Observations for November 4, 2020

Temp ( °F °C ) Dew Point ( °F °C ) Humidity (%) Winds ( mph kmh ) Pressure ( in mb ) Visibility ( mi km ) Precip ( " mm )
12:56 am 00:56 Clear 49 9.4 31 -0.6 50 50 WSW 6 9 29.93 1014 10 16 0.00 0.00
1:56 am 01:56 Clear 50 10 30 -1.1 46 46 SSW 6 9 29.93 1013 10 16 0.00 0.00
2:56 am 02:56 Clear 47 8.3 30 -1.1 52 52 WSW 5 7 29.92 1013 10 16 0.00 0.00
3:56 am 03:56 Clear 42 5.6 28 -2.2 58 58 Calm 29.93 1013 10 16 0.00 0.00
4:56 am 04:56 Clear 43 6.1 27 -2.8 53 53 NW 6 9 29.93 1014 10 16 0.00 0.00
5:56 am 05:56 Clear 42 5.6 28 -2.2 58 58 SW 5 7 29.94 1014 10 16 0.00 0.00
6:56 am 06:56 Clear 42 5.6 28 -2.2 58 58 Calm 29.96 1015 10 16 0.00 0.00
7:56 am 07:56 Sunny 45 7.2 28 -2.2 52 52 WNW 6 9 29.98 1015 10 16 0.00 0.00
8:56 am 08:56 Sunny 52 11.1 30 -1.1 43 43 S 3 6 29.98 1015 10 16 0.00 0.00
9:56 am 09:56 Sunny 63 17.2 30 -1.1 29 29 SSW 8 13 29.98 1015 10 16 0.00 0.00
10:56 am 10:56 Sunny 70 21.1 32 0 25 25 WSW 6 9 29.97 1015 10 16 0.00 0.00
11:56 am 11:56 Sunny 76 24.4 31 -0.6 19 19 W 6 9 29.96 1014 10 16 0.00 0.00
12:56 pm 12:56 Sunny 79 26.1 31 -0.6 17 17 VRB 6 9 29.94 1014 10 16 0.00 0.00
1:56 pm 13:56 Sunny 78 25.6 32 0 19 19 SW 8 13 29.93 1014 10 16 0.00 0.00
2:56 pm 14:56 Sunny 81 27.2 31 -0.6 16 16 SW 5 7 29.93 1014 10 16 0.00 0.00
3:56 pm 15:56 Sunny 80 26.7 32 0 17 17 WSW 7 11 29.94 1014 10 16 0.00 0.00
4:56 pm 16:56 Sunny 79 26.1 32 0 18 18 W 3 6 29.96 1015 10 16 0.00 0.00
5:56 pm 17:56 Clear 65 18.3 31 -0.6 28 28 SE 3 6 29.99 1016 10 16 0.00 0.00
6:56 pm 18:56 Clear 68 20 33 0.6 27 27 SW 5 7 30.01 1016 10 16 0.00 0.00
7:56 pm 19:56 Clear 64 17.8 33 0.6 32 32 WSW 7 11 30.02 1017 10 16 0.00 0.00
8:56 pm 20:56 Clear 55 12.8 30 -1.1 38 38 WNW 7 11 30.04 1017 10 16 0.00 0.00
9:56 pm 21:56 Clear 55 12.8 29 -1.7 37 37 WNW 8 13 30.06 1018 10 16 0.00 0.00
10:56 pm 22:56 Clear 49 9.4 29 -1.7 46 46 NW 9 15 30.08 1019 10 16 0.00 0.00
11:56 pm 23:56 Clear 50 10 32 0 50 50 NW 12 19 30.08 1019 10 16 0.00 0.00

Powered by AerisWeather